Regional Weather Roundup
Issued by NWS Wakefield, VA

Home | Current Version | Previous Version | Graphics & Text | Print | Product List | Glossary On
Versions: 1 2 3 4 5 6 7 8 9 10 11 12 13 14 15 16 17 18 19 20 21 22 23 24 25 26 27 28 29 30 31 32 33 34 35 36 37 38 39 40 41 42 43 44 45 46 47 48 49 50
408
ASUS41 KAKQ 180815
RWRAKQ

REGIONAL WEATHER ROUNDUP
NATIONAL WEATHER SERVICE WAKEFIELD VA
300 AM EST WED JAN 18 2017

Note: "fair" indicates few or no clouds below 12,000 feet with no
significant weather and/or obstructions to visibility. * = Denotes
station may not report precipitation (e.g., rain,snow,etc.),
thunder or fog.

VAZ042-051-052>054-056-180900-
NORTHERN VIRGINIA

CITY           SKY/WX    TMP DP  RH WIND       PRES   REMARKS
WASH NATIONAL  CLOUDY    46  46 100 NE5       29.88F FOG
DULLES         CLOUDY    46  45  96 CALM      29.88R FOG
FORT BELVOIR   CLOUDY    43  42  97 CALM      29.87S
QUANTICO       CLOUDY    49  48  97 NE3       29.87S FOG
FREDERICKSBRG* CLOUDY    57  56  95 SW6       29.86S
STAFFORD*      CLOUDY    54  54  99 CALM      29.90F
WARRENTON      FOG       48  45  91 CALM      29.85F VSB 1/2
CULPEPER*      FOG       44  44 100 CALM      29.87F VSB 1/4
MANASSAS*      NOT AVBL
LEESBURG*      FOG       45  45 100 N6        29.90R VSB 1/2
WINCHESTER     FOG       39  37  93 CALM      29.89R VSB 1
FRONT ROYAL*   CLOUDY    39  39 100 CALM      29.87S VSB 1/4
LURAY*         FAIR      52  50  93 NE3       29.86S
$$

VAZ048-049-060>072-079>083-180900-
CENTRAL AND SOUTH CENTRAL VIRGINIA

CITY           SKY/WX    TMP DP  RH WIND       PRES   REMARKS
RICHMOND       CLOUDY    55  55 100 S6        29.90F FOG
CHESTERFIELD*  CLOUDY    59  45  58 SW7       29.91F
PETERSBURG*    LGT RAIN  54  54 100 S5        29.92F
HANOVER        CLOUDY    56  54  93 S7        29.90F
TAPPAHANNOCK*  MOCLDY    59  58  97 S8        29.89S
QUINTON*       CLOUDY    55  55 100 S12G17    29.90F FOG
CHARLOTTSVILLE CLOUDY    52  52 100 CALM      29.85F FOG
GORDONSVILLE*  PTSUNNY   53  53 100 SW6       29.86F
ORANGE*          N/A     54  54 100 CALM      29.88F
LOUISA*        CLOUDY    61  57  88 SW5       29.87S
BUMPASS*       CLOUDY    57  56  99 SW6       29.88S
FARMVILLE*     CLOUDY    58  56  94 SW6       29.90S
CREWE*         CLOUDY    59  59 100 SW5       29.91F
FORT PICKETT*  CLOUDY    58  54  88 SW5       29.92F
CHASE CITY*    CLOUDY    58  57  94 W6        29.94R
CLARKSVILLE*   PTSUNNY   63  55  77 W3        29.92S
SOUTH HILL*    CLOUDY    60  56  87 SW5       29.98S
LAWRENCEVILLE* CLOUDY    59  56  90 MISG      29.93R
EMPORIA*       CLOUDY    59  55  88 S3        29.94S
$$

VAZ088>098-180900-
SOUTHEAST VIRGINIA

CITY           SKY/WX    TMP DP  RH WIND       PRES   REMARKS
NORFOLK        CLOUDY    61  55  81 SW14      29.90F
VIRGINIA BEACH CLOUDY    60  54  80 SW14      29.90F
NORFOLK NAVAL  CLOUDY    60  55  83 SW8       29.93R
WEST POINT*    CLOUDY    56  55  97 S5        29.91F
SALUDA*        CLOUDY    57  57 100 SW10G20   29.88F
NEWPORT NEWS   LGT RAIN  58  55  90 W7        29.92F
LANGLEY AFB    CLOUDY    57  57 100 W6        29.91F
FORT EUSTIS    CLOUDY    57  54  88 CALM      29.90S
WILLIAMSBURG*  CLOUDY    57  55  94 SW6       29.93F
HR EXEC AP*    FAIR      59  54  82 SW6       29.90F
FRANKLIN*      CLOUDY    60  55  83 SW3       29.93S
US460-WAKEFLD  CLOUDY    58  56  93 CALM      29.93S
$$

VAZ020-022-025-037-045-180900-
WEST CENTRAL AND SOUTHWEST VIRGINIA

CITY           SKY/WX    TMP DP  RH WIND       PRES   REMARKS
STAUNTON*      CLOUDY    49  48  96 CALM      29.89F
WAYNESBORO*    FAIR      57  48  72 W6        29.88F
HOT SPRINGS VA CLEAR     46  43  87 W18G28    29.91F
LYNCHBURG      CLOUDY    53  53 100 S6        29.92F FOG
DANVILLE       CLOUDY    55  55 100 NW9       29.95R
SOUTH BOSTON*  CLOUDY    58  56  96 NW5       29.95R
MARTINSVILLE   CLOUDY    52  51  97 CALM      29.98R FOG
ROANOKE        CLOUDY    58  53  84 S5        29.93F
BLACKSBURG     CLOUDY    57  51  78 W9        29.98F
DUBLIN*        CLOUDY    59  52  76 W13G25    29.97F
MARION*        CLOUDY    56  49  78 W18G26    30.01S
HILLSVILLE*    CLOUDY    55  54  97 W14G21    29.98R
RICHLANDS*     PTSUNNY  N/A N/A N/A W7G17     30.01F
WISE*          MOCLDY    52  43  71 W9        30.04R
ABINGDON*      CLOUDY    58  54  86 W10       30.03R
$$

MDZ021>025-VAZ099-100-180900-
SOUTHERN MARYLAND AND THE DELMARVA PENINSULA

CITY           SKY/WX    TMP DP  RH WIND       PRES   REMARKS
PATUXENT RIVER MOCLDY    57  54  89 SW14      29.85F
BAY BRIDGE APT FOG       41  41 100 N5        29.89R VSB 1/2
LEONARDTOWN    CLOUDY    54  52  94 SW7       29.88S
DOVER          FOG       45  45 100 NW6       29.87S VSB 1
GEORGETOWN     CLOUDY    50  49  96 CALM      29.87F FOG
EASTON         FOG       49  48  95 CALM      29.91R VSB 1/4
CAMBRIDGE      CLOUDY    43  43 100 CALM      29.86S VSB 1/4
SALISBURY      CLOUDY    53  52  96 W3        29.87R
OCEAN CITY     CLOUDY    54  53  97 N6        29.87S
WALLOPS ISLAND CLOUDY    60  57  89 W15G25    29.86F
ACCOMACK*      CLOUDY    61  56  84 SW15G25   29.89F
$$

NCZ012>017-030>032-180900-
NORTH CENTRAL AND EASTERN NORTH CAROLINA

CITY           SKY/WX    TMP DP  RH WIND       PRES   REMARKS
ROANOKE RAPIDS FAIR      59  55  88 SW7       29.92F
RALEIGH        CLOUDY    61  56  83 SW10      29.95F
ELIZABETH CITY CLOUDY    59  56  89 MISG      29.94F
AHOSKIE*       CLOUDY    60  56  87 SW5       29.93F
EDENTON*       CLOUDY    62  56  81 SW9       29.95F
CURRITUCK*     CLOUDY    60  58  92 SW8G17    29.92F
KILL DEVIL HLS NOT AVBL
MANTEO         CLOUDY    56  55  95 SW13      29.96F
CAPE HATTERAS  CLOUDY    62  58  86 W15G23    30.00F FOG
TARBORO*       NOT AVBL
GOLDSBORO      MOCLDY    63  61  94 SW10      29.96F
WASHINGTON     CLOUDY    60  56  86 SW8       29.98F
GREENVILLE     CLOUDY    63  59  88 SW10      29.99F
NEW BERN       CLOUDY    61  56  83 SW7       30.01F
WILMINGTON     PTCLDY    62  58  86 SW12      30.03F
$$

VAZ048-180900-
ELSEWHERE

CITY           SKY/WX    TMP DP  RH WIND       PRES   REMARKS
HARRISBURG PA  CLOUDY    38  38 100 N3        29.90R FOG
BALTIMORE      FOG       44  44 100 CALM      29.89R VSB 1/4
ANNAPOLIS      CLOUDY    44  42  93 N5        29.88S FOG
ANDREWS AFB    CLOUDY    46  46 100 CALM      29.87S FOG
PHILADELPHIA   CLOUDY    43  41  93 N7        29.91R
HENDERSON NC   CLOUDY    57  53  86 SW9       29.93F
GREENSBORO     CLOUDY    60  56  86 SW10      29.93F
ROCKY MOUNT    CLOUDY    62  57  83 SW9       29.95F
$$

VAZ100-180900-
MARINE

STATION/POSITION TIME  TEMP    WIND        PRES    WAVE   SWELL
                       AIR SEA DIR/SP/G            HT/PER HT/PER
                 (UTC) (F)     (DEG/KT/KT) (MB)    (FT/S) (FT/S)
CAPE MAY NJ      0748   47 41   CALM  /  1 1011.2S
LEWES DE         0736   49 41  200/  1/  2 1011.5R
OCEAN-CITY-INLET 0736   54 42  340/  3/  4 1011.6S
WACHAPREAGUE VA  0742   60 47  250/  9/ 19 1012.1F
THOMAS POINT MD  0800   43 38  350/  9/ 10   N/A
GOOSES REEF MD   0800   40     340/ 10/ 12 1012.4    1
COVE POINT MD    0742   40     350/ 11/ 14 1012.0R
SOLOMONS ISLAND  0742   53 41  240/ 12/ 14   N/A
BISHOPS HEAD MD  0736   50 43  230/ 12/ 14 1011.1F
PINEY POINT MD   0748          260/  8/ 12   N/A
POTOMAC MD       0750   50     260/ 10/ 14 1010.2F
CAMBRIDGE MD     0736   45 39   CALM  /  1 1010.7S
LEWISETTA VA     0742   59 44  250/ 15/ 20 1010.8F
RAPPAHANNOCK LGT 0748          190/ 12/ 13 1013.1F
STINGRAY PT      0750   48     220/  8/ 10 1012.5F
YORK RVR RNG VA  0742   54     270/ 10/ 11 1012.2F
YORKTOWN VA      0742   58 43  240/  6/  8 1012.6F
JAMESTOWN VA     0750   53     310/  2/  4   N/A
DOMINION TERM VA 0742   52     240/  5/  6 1013.0F
KIPTOPEKE VA     0748          320/  3/  5   N/A
CHES BAY BRIDGE  0742   57 43  240/ 14/ 16 1012.4F
CAPE HENRY VA    0742   62     240/ 14/ 19   N/A
WILLOUBY STN VA  0742   56     240/ 12/ 13 1013.4F
S CRANEY ISL VA  0742   60     230/  6/ 10 1012.8F
CAPE HENRY BUOY  0742      45                N/A     2/10
OFFSHORE WE BUOY 0721      49                N/A     2/ 4
64NM E OF VA BCH 0750   58 57  220/ 19/ 23 1012.6F   4/ 5   2/ 8
DUCK PIER NC     0742   58 44  210/ 13/ 18 1013.5F
44100 DUCK FRF   0735      47                N/A     2/11
44056 DUCK FRF   0730      45                N/A     1/ 9
OREGON INLET NC  0742   52 50  210/ 12/ 14 1015.0F
HATTERAS NC      0748          230/ 13/ 18 1015.5F
DIAMOND SHLS NC  0750   70 71  240/ 23/ 27 1015.5F   6/ 6   2/10
CAPE LOOKOUT NC  0700   63     240/ 11/ 13 1016.8F
$$




USA.gov is the U.S. government's official web portal to all federal, state and local government web resources and services.